Back to catalog

WENCHANG-1 01

AliveSciencePO
NORAD 51827·PAYLOAD·🇨🇳 China
This satellite name has not been confirmed by official sources yet.

Launched Feb 27, 2022 from Wenchang Space Launch Site

Loading…

Next Passes (next 24 hours)

TLE

FreshSource: Space-Track

Epoch: Sep 14, 2026, 13:44 UTC

1 51827U 22019D   26257.57253162  .00236312  22876-4  71947-3 0  9997
2 51827  97.3607 356.0931 0004726 209.1173 150.9838 15.91994764253814

Track WENCHANG-1 01 in real time with AllMySat

Download on the App Store